TimeAKST,TemperatureF,Dew PointF,Humidity,Sea Level PressureIn,VisibilityMPH,Wind Direction,Wind SpeedMPH,Gust SpeedMPH,PrecipitationIn,Events,Conditions,WindDirDegrees,DateUTC
12:53 AM,-29.0,-36.0,69,30.12,9.0,Calm,Calm,-,N/A,,Mostly Cloudy,0,2012-12-04 09:53:00
1:53 AM,-31.0,-9999,N/A,30.12,10.0,West,3.5,-,N/A,,Scattered Clouds,260,2012-12-04 10:53:00
3:53 AM,-33.0,-9999,N/A,30.09,10.0,Calm,Calm,-,N/A,,Scattered Clouds,0,2012-12-04 12:53:00
4:53 AM,-32.1,-9999,N/A,30.09,10.0,Calm,Calm,-,N/A,,Mostly Cloudy,0,2012-12-04 13:53:00
5:53 AM,-31.0,-9999,N/A,30.07,10.0,Calm,Calm,-,N/A,,Mostly Cloudy,0,2012-12-04 14:53:00
6:53 AM,-34.1,-9999,N/A,30.07,10.0,Calm,Calm,-,N/A,,Mostly Cloudy,0,2012-12-04 15:53:00
7:53 AM,-36.9,-9999,N/A,30.07,10.0,NE,3.5,-,N/A,,Scattered Clouds,50,2012-12-04 16:53:00
8:53 AM,-34.1,-9999,N/A,30.06,7.0,NE,3.5,-,N/A,,Scattered Clouds,40,2012-12-04 17:53:00
9:53 AM,-36.0,-9999,N/A,30.05,10.0,Calm,Calm,-,N/A,,Scattered Clouds,0,2012-12-04 18:53:00
10:53 AM,-36.9,-9999,N/A,30.04,10.0,Calm,Calm,-,N/A,Fog,Partly Cloudy,0,2012-12-04 19:53:00
11:53 AM,-36.0,-9999,N/A,30.03,10.0,Calm,Calm,-,N/A,Fog,Patches of Fog,0,2012-12-04 20:53:00
12:53 PM,-34.1,-9999,N/A,30.01,10.0,Calm,Calm,-,N/A,Fog,Partly Cloudy,0,2012-12-04 21:53:00
1:53 PM,-33.0,-9999,N/A,29.99,10.0,Calm,Calm,-,N/A,Fog,Partly Cloudy,0,2012-12-04 22:53:00
2:53 PM,-34.1,-9999,N/A,29.98,10.0,Calm,Calm,-,N/A,Fog,Partly Cloudy,0,2012-12-04 23:53:00
3:53 PM,-36.0,-9999,N/A,29.96,10.0,Calm,Calm,-,N/A,Fog,Partly Cloudy,0,2012-12-05 00:53:00
4:53 PM,-35.0,-9999,N/A,29.96,10.0,Calm,Calm,-,N/A,Fog,Partly Cloudy,0,2012-12-05 01:53:00
5:53 PM,-36.0,-9999,N/A,29.94,10.0,Calm,Calm,-,N/A,,Partly Cloudy,0,2012-12-05 02:53:00
6:53 PM,-35.0,-9999,N/A,29.94,10.0,Calm,Calm,-,N/A,,Partly Cloudy,0,2012-12-05 03:53:00
7:53 PM,-31.0,-9999,N/A,29.94,7.0,Calm,Calm,-,N/A,,Partly Cloudy,0,2012-12-05 04:53:00
8:53 PM,-32.1,-9999,N/A,29.93,7.0,Calm,Calm,-,N/A,,Partly Cloudy,0,2012-12-05 05:53:00
9:53 PM,-29.9,-9999,N/A,29.92,7.0,Calm,Calm,-,N/A,,Scattered Clouds,0,2012-12-05 06:53:00
10:53 PM,-29.0,-36.0,69,29.91,7.0,Calm,Calm,-,N/A,,Scattered Clouds,0,2012-12-05 07:53:00
11:53 PM,-29.9,-9999,N/A,29.91,6.0,Calm,Calm,-,N/A,Snow,Light Snow,0,2012-12-05 08:53:00